Powrót do katalogu

QIANFAN-125

AktywnyŁącznośćPO
NORAD 68652·PAYLOAD·🇨🇳 China

Wystrzelony Apr 7, 2026 z Wenchang Space Launch Site

Loading…

Następne Przeloty (najbliższe 24 godziny)

TLE

ŚwieżeSource: Space-Track

Epoka: Sep 14, 2026, 21:21 UTC

1 68652U 26075S   26257.89015988  .00000071  00000-0  91225-4 0  9998
2 68652  88.9872 311.8386 0002281  99.1570 260.9839 13.51023594 21929

Śledź QIANFAN-125 w czasie rzeczywistym z AllMySat

Download on the App Store